Details for QantasLink at YMML




Go Back


Latest METAR
Local Time

YMML 180600Z 28019KT 9999 VCSH FEW020 FEW037CB 09/03 Q1008 FM0600 27018G30KT 9999 -SHRA SCT035 SCT040 INTER 0600/0900 27025G40KT 3000 SHRAGS SCT020 BKN035 FM0600 MOD TURB BLW 5000FT
18/08/2018, 16:28:17

Description
Results
QantasLink Logo
Number of Pilots based at YMML
0 Pilots Based here
Number of QantasLink Flights Departed from YMML
0 Flights Departed
Number of QantasLink Flights Arrived at YMML
0 Flights Arrived
Number of QantasLink Schedules Departing from YMML
6 Schedules
Number of QantasLink Schedules Arriving at YMML
10 Schedules
Number of QantasLink Schedules Departing from YMML availible today
2 Schedules Today
Number of QantasLink Schedules Arriving at YMML availible today
4 Schedules Today
Average Landing Rate at YMML
-190 fpm
QantasLink Average Landing Rate at YMML
0 fpm
Total Fuel Purchased at YMML by QantasLink
0.00 kgs / 0.00 lbs

Pilots Based at YMML


Pilot ID
Pilot Name
Pilot Rank
No. of Flights
No. of Flying Hours
There are no pilots assigned to this hub!   Will you be the first?
Content